Terminal Aerodrome Forecast
Issued by NWS Blacksburg, VA

Current Version | Previous Version | Text Only | Print | Product List | Glossary Off
Versions: 1 2 3 4 5 6 7 8 9 10 11 12 13 14 15 16 17 18 19 20 21 22 23 24 25 26 27 28 29 30 31 32 33 34 35 36 37 38 39 40 41 42 43 44 45 46 47 48 49

000
FTUS41 KRNK 201123
TAFBLF
TAF
KBLF 201123Z 2012/2112 23006KT P6SM BKN250
     FM201400 24010G18KT P6SM BKN200
     FM202000 23007KT P6SM BKN100 OVC200
     FM202300 25006KT P6SM -SHRA BKN050 OVC090
     FM210600 27006KT P6SM -SHRA BKN015 OVC035=

USA.gov is the U.S. government's official web portal to all federal, state and local government web resources and services.